Location: Kolbingen
(48.0513°N, 8.8898°E)
Time: 23:30:28
(UTC+00:00)

Daily predictions for brighter satellites

Satellite Brightness Start Highest point End
(mag) Time Altitude Azimuth Time Altitude Azimuth Time Altitude Azimuth
Cosmos 1975 3.7 17:20:53 10° SSW 17:24:52 56° WNW 17:28:51 10° N
Cosmos 2263 Rocket 2.2 17:19:51 10° NNW 17:25:34 69° ENE 17:31:14 10° SE
COSMO-SKYMED 1 2.7 17:21:22 10° NNE 17:25:41 57° ESE 17:29:56 10° S
Cosmos 1437 Rocket 4.1 17:27:49 10° SE 17:30:16 17° E 17:32:43 10° NE
Spot 1 4.5 17:27:13 10° NNE 17:31:08 37° E 17:34:55 10° SSE
ASTEX 1 3.5 17:26:38 10° NNE 17:31:35 59° E 17:36:30 10° S
HJ-1C 4.3 17:29:51 10° SE 17:32:27 25° ENE 17:35:03 10° NNE
Cosmos 1741 Rocket 4.0 17:27:39 10° S 17:32:53 66° ESE 17:38:07 10° NNE
CZ-4C R/B 4.0 17:30:37 10° N 17:34:51 64° WNW 17:38:53 10° SSW
USA 267 3.3 17:29:36 10° ESE 17:36:10 89° SSW 17:42:46 10° NW
Cosmos 1626 3.7 17:33:04 10° NNW 17:36:29 39° W 17:39:53 10° SSW
Cosmos 1814 Rocket 4.2 17:31:55 10° NNW 17:37:05 53° ENE 17:42:08 10° SE
SL-4 R/B 2.3 17:33:01 10° WNW 17:37:25 87° SSW 17:42:04 10° ESE
Cosmos 2084 Rocket 4.3 17:36:47 10° NNW 17:40:10 28° NE 17:43:23 11° E
Cosmos 1805 3.2 17:37:44 10° S 17:41:36 81° E 17:45:31 10° NNE
Cosmos 2227 4.3 17:37:17 10° NNW 17:42:52 58° ENE 17:48:23 10° SE
Cosmos 1242 Rocket 2.8 17:39:21 10° SSW 17:42:53 70° WNW 17:46:26 10° N
Okean-O 4.3 17:42:56 11° E 17:45:31 16° ENE 17:48:16 10° NNE
ISS -2.2 17:44:11 10° W 17:47:15 33° SW 17:50:19 10° SSE
CZ-4 R/B 2.0 17:44:10 10° SE 17:48:01 37° ENE 17:51:53 10° N
Cosmos 1697 Rocket 3.9 17:42:44 10° SW 17:48:07 45° NW 17:53:31 10° NNE
BREEZE M DEB (TANK) 4.0 17:44:13 10° SSW 17:50:34 24° SSE 17:53:03 13° ESE
Cosmos 1908 Rocket 3.9 17:49:17 10° SSE 17:53:18 39° E 17:57:21 10° NNE
IRIDIUM 103 4.4 17:48:40 10° SSE 17:53:44 55° E 17:58:50 10° NNE
SL-14 R/B 3.4 17:49:52 10° NNW 17:53:51 79° W 17:57:51 10° S
Meteor 2-21 4.4 17:47:53 10° S 17:53:51 65° E 17:59:51 10° NNE
OBJECT-B 2.3 17:54:14 13° ENE 17:54:14 13° ENE 17:55:10 10° NE
MOS 1-B 4.3 17:48:16 10° SSE 17:54:03 81° ENE 17:59:54 10° NNW
Cosmos 1733 3.7 17:51:26 10° SSW 17:55:08 62° W 17:58:52 10° N
Cosmos 2360 Rocket 3.5 17:52:05 10° SE 17:55:30 17° E 17:58:56 10° ENE
Cosmos 1809 Rocket 4.4 17:52:24 10° S 17:58:29 85° E 18:04:37 10° N
Cosmos 1766 3.2 17:57:34 10° S 18:01:28 66° E 18:05:23 10° NNE
Cosmos 1782 Rocket 4.4 17:57:57 10° SE 18:01:35 27° E 18:05:16 10° NNE
Meteor 2-10 4.2 17:57:25 10° SSW 18:03:03 86° WNW 18:08:33 10° N
Cosmos 1674 Rocket 3.7 17:58:40 10° NNW 18:03:05 80° W 18:07:32 10° S
Cosmos 1025 Rocket 4.0 18:02:01 10° NNE 18:05:41 27° ENE 18:07:56 18° ESE
YAOGAN 1 2.5 18:01:55 10° SSE 18:06:14 79° ENE 18:10:34 10° N
ATLAS 2AS CENTAUR R/B 4.5 18:01:29 10° NW 18:07:16 23° N 18:12:49 10° NE
Cosmos 2026 Rocket 4.4 18:02:14 10° SSE 18:07:38 35° E 18:13:03 10° NNE
Cosmos 968 Rocket 3.7 18:03:06 10° S 18:08:08 49° ESE 18:13:11 10° NNE
Okean O Rocket 1.5 18:05:44 10° SSE 18:10:04 72° ENE 18:14:28 10° N
IRIDIUM 106 4.2 18:06:47 10° S 18:11:59 78° E 18:17:14 10° N
Lacrosse 4 Rocket 2.4 18:09:40 10° SSE 18:12:58 24° ESE 18:13:56 22° E
Nadezhda 4 Rocket 4.0 18:09:04 10° S 18:15:22 78° E 18:21:42 10° NNE
Meteor 2-5 Rocket 3.7 18:10:00 10° N 18:15:28 57° ENE 18:20:54 10° SSE
Meteor 1-15 Rocket 4.1 18:11:38 10° S 18:17:07 64° E 18:22:38 10° NNE
CSL-04 Rocket 4.2 18:13:27 15° SE 18:17:24 38° ENE 18:22:23 10° N
Cosmos 2285 Rocket 4.1 18:15:38 10° NNW 18:22:01 84° WSW 18:28:24 10° SSE
USA 186 2.6 18:22:41 32° E 18:23:10 33° ENE 18:26:15 10° N
Cosmos 1726 3.0 18:20:07 10° SSW 18:23:40 50° WNW 18:27:15 10° N
Cosmos 2322 Rocket 2.5 18:18:43 10° S 18:24:00 41° ESE 18:29:20 10° NE
Cosmos 1470 2.7 18:24:33 10° S 18:28:17 53° E 18:32:02 10° NNE
CZ-4B R/B 3.7 18:23:18 10° S 18:28:38 62° WSW 18:34:06 10° NNW
Cosmos 1980 Rocket 3.5 18:24:54 10° SW 18:30:14 42° NW 18:35:34 10° NNE
Cosmos 1975 Rocket 3.2 18:26:35 10° N 18:30:53 48° ENE 18:33:09 25° SE
ARGOS Delta rocket 4.5 18:25:53 10° N 18:31:07 65° WNW 18:36:02 10° SSW
CRYOSAT 2 4.5 18:34:18 15° SSE 18:38:10 53° E 18:42:56 10° N
Cosmos 2292 Rocket 3.5 18:33:21 10° S 18:38:30 88° E 18:42:23 10° N
USA 215 3.7 18:36:57 10° NE 18:43:21 59° NNW 18:49:44 10° W
IRS-1C Rocket 4.2 18:43:42 29° SE 18:46:16 55° ENE 18:51:24 10° N
Cosmos 1844 Rocket 2.6 18:44:41 10° NNW 18:50:23 70° ENE 18:52:59 33° SE
SL-16 R/B 2.1 18:48:32 10° SSW 18:54:12 89° WNW 18:59:56 10° NNE
Landsat 5 3.5 18:51:10 10° NNE 18:55:41 68° ESE 19:00:05 10° S
Cosmos 1092 Rocket 4.0 18:50:34 10° S 18:56:53 90° SE 19:03:11 10° N
Resurs 01 Rocket 2.8 19:01:19 29° NE 19:01:19 29° NE 19:04:17 10° N
Cosmos 836 Rocket 4.4 18:56:25 10° NNW 19:01:45 77° ENE 19:03:34 42° SE
SJ-6B 2.6 19:02:07 64° S 19:02:40 85° WSW 19:06:29 10° NNW
Cosmos 2278 Rocket 3.8 19:01:16 10° N 19:05:17 19° NE 19:05:41 19° NE
H-2A R/B 3.6 19:07:12 28° NNE 19:07:12 28° NNE 19:09:25 10° N
Cosmos 1437 Rocket 4.1 19:02:36 10° SW 19:06:07 38° WNW 19:09:38 10° N
Meteor 1-24 Rocket 4.1 19:05:31 10° NNW 19:10:44 59° W 19:16:01 10° S
Resurs 1-3 3.4 19:11:26 73° SE 19:11:46 80° ENE 19:16:10 10° N
MetOp-A 4.4 19:17:19 34° NNE 19:17:19 34° NNE 19:19:51 10° N
SL-4 R/B 3.9 19:12:49 10° W 19:16:36 26° SW 19:17:52 23° SSW
Cosmos 2084 Rocket 4.1 19:15:58 10° NW 19:19:38 43° SW 19:19:51 42° SW
Okean-O 2.8 19:20:29 50° SSW 19:21:29 68° WSW 19:25:55 10° NNW
CZ-4 R/B 3.7 19:19:40 10° SSW 19:23:03 23° W 19:26:27 10° NW
Cosmos 1486 Rocket 3.9 19:18:13 10° SSW 19:23:33 84° ESE 19:28:55 10° NNE
OBJECT-B 3.4 19:24:55 15° NW 19:24:55 15° NW 19:25:41 10° NW
Cosmos 1844 3.7 19:19:18 10° NNW 19:24:53 79° WSW 19:26:12 53° S
IGS 5A 4.1 19:24:37 45° SW 19:25:25 53° W 19:29:30 10° NNW
DNEPR-1 R/B 3.9 19:23:10 10° SW 19:27:55 85° NW 19:30:36 32° NE
S3M 3.9 19:23:47 10° N 19:29:58 60° ENE 19:30:10 60° E
Cosmos 1300 Rocket 3.8 19:30:15 58° WSW 19:30:48 65° WNW 19:35:09 10° N
Cosmos 773 Rocket 4.1 19:26:04 10° NNW 19:31:00 63° NE 19:31:00 63° NE
Meteor 1-21 Rocket 4.3 19:26:36 10° N 19:31:34 56° NE 19:31:34 56° NE
Cosmos 2360 Rocket 2.1 19:33:05 10° SSW 19:38:45 84° WNW 19:44:26 10° NNE
Cosmos 1417 Rocket 4.4 19:44:15 10° N 19:50:24 83° W 19:51:04 72° SSW
Lacrosse 4 Rocket 2.9 19:47:27 10° WSW 19:50:17 34° W 19:50:17 34° W
ATLAS 2AS CENTAUR R/B 3.8 19:54:14 10° NW 20:00:34 31° NNE 20:01:35 30° NE
MOS 1 4.4 20:01:33 74° WNW 20:01:33 74° WNW 20:06:52 10° NNW
SPOT 1/Viking Rocket 4.2 20:07:53 53° NW 20:07:53 53° NW 20:11:58 10° NNW
Cosmos 2322 Rocket 3.5 20:02:47 10° WSW 20:08:06 39° NW 20:13:26 10° NNE
NOSS 3-4 (A) 3.7 20:05:20 10° NW 20:12:04 76° NE 20:12:04 76° NE
NOSS 3-4 (C) 3.7 20:05:27 10° NW 20:12:10 76° NE 20:12:10 76° NE
Ariane Rocket 4.2 20:16:26 37° NNW 20:16:26 37° NNW 20:19:30 10° NNW
USA 215 4.2 20:24:15 36° NNE 20:25:45 41° N 20:31:46 10° WNW
Aureole 1 Rocket 4.5 20:18:39 10° SW 20:25:51 59° WNW 20:31:31 10° NNE
USA 281 3.9 20:27:40 45° NNE 20:27:40 45° NNE 20:32:37 10° NNW
Resurs 01 Rocket 4.0 20:38:53 21° NW 20:38:53 21° NW 20:40:45 10° NNW
Terra 4.3 20:42:43 16° N 20:42:43 16° N 20:43:40 10° N
Cosmos 1943 Rocket 4.2 20:36:48 10° NNW 20:38:59 20° N 20:38:59 20° N
Cosmos 2278 Rocket 3.7 20:44:35 10° NNW 20:47:32 32° NNW 20:47:32 32° NNW
Cosmos 2360 Rocket 4.5 21:19:35 10° W 21:23:37 20° NW 21:27:41 10° N
ATLAS 2AS CENTAUR R/B 4.2 21:45:25 10° NW 21:49:00 32° NW 21:49:00 32° NW
